Weather History for KGPT - January, 2013

Change the Weather History Date:

Tuesday, January 29, 2013

  Actual Average (KBIX) Record (KBIX)
Temperature  
Mean Temperature 66 °F -  
Max Temperature 69 °F 61 °F 77 °F (1950)
Min Temperature 64 °F 45 °F 23 °F (2014)
Cooling Degree Days 2    
Growing Degree Days 16 (Base 50)    
Moisture  
Dew Point 66 °F    
Average Humidity 98    
Maximum Humidity 100    
Minimum Humidity 88    
Precipitation  
Precipitation 0.00 in - - ()
Sea Level Pressure  
Sea Level Pressure 30.00 in    
Wind  
Wind Speed 10 mph (SSE)    
Max Wind Speed 17 mph    
Max Gust Speed 24 mph    
Visibility 2 miles    
Events Fog , Rain    
Averages and records for this station are not official NWS values.
T = Trace of Precipitation, MM = Missing Value Source: NWS Daily Summary

Daily Weather History Graph

Daily Weather History Graph

Search for Another Location

Airport or City:

Trip Planner

Search our weather history database for the weather conditions in past years. The results will help you decide how hot, cold, wet, or windy it might be!

Date:

Astronomy

Jan. 29, 2013 Rise Set
Actual Time 6:48 AM CST 5:30 PM CST
Civil Twilight 6:23 AM CST 5:55 PM CST
Nautical Twilight 5:54 AM CST 6:24 PM CST
Astronomical Twilight 5:26 AM CST 6:53 PM CST
Moon 8:09 PM CST (1/29) 8:00 AM CST (1/29)
Length of Visible Light 11h 32m
Length of Day
10h 41m
Waning Gibbous, 93% of the Moon is Illuminated
Jan 29
Waning Gibbous
Feb 3
Last Quarter
Feb 10
New
Feb 17
First Quarter
Feb 25
Full

Hourly Weather History & Observations

Time (CST) Temp. Dew Point Humidity Pressure Visibility Wind Dir Wind Speed Gust Speed Precip Events Conditions
12:17 AM 64.4 °F 64.4 °F 100% 30.13 in 1.5 mi ESE 10.4 mph - N/A   Overcast
12:32 AM 64.4 °F 64.4 °F 100% 30.13 in 0.8 mi ESE 8.1 mph - N/A   Overcast
12:53 AM 64.9 °F 64.0 °F 97% 30.12 in 0.5 mi ESE 10.4 mph - N/A Fog Fog
1:03 AM 64.4 °F 64.4 °F 100% 30.12 in 0.2 mi SE 9.2 mph - N/A Fog Fog
1:15 AM 64.4 °F 64.4 °F 100% 30.12 in 0.5 mi SE 9.2 mph - N/A Fog Fog
1:31 AM 64.4 °F 64.4 °F 100% 30.11 in 1.5 mi SE 9.2 mph - N/A   Overcast
1:43 AM 64.4 °F 64.4 °F 100% 30.11 in 2.0 mi SE 11.5 mph - N/A   Overcast
1:53 AM 64.9 °F 64.9 °F 100% 30.11 in 2.5 mi SE 10.4 mph - N/A   Overcast
2:21 AM 64.4 °F 64.4 °F 100% 30.11 in 1.5 mi SE 10.4 mph - N/A   Overcast
2:34 AM 64.4 °F 64.4 °F 100% 30.10 in 0.8 mi SE 10.4 mph - N/A   Overcast
2:53 AM 64.9 °F 64.9 °F 100% 30.10 in 0.5 mi SE 9.2 mph - N/A Fog Fog
3:53 AM 64.9 °F 64.9 °F 100% 30.09 in 1.2 mi SE 9.2 mph - N/A   Overcast
4:22 AM 64.4 °F 64.4 °F 100% 30.07 in 2.0 mi SE 9.2 mph - N/A   Overcast
4:53 AM 66.0 °F 64.9 °F 96% 30.07 in 2.5 mi SE 8.1 mph - N/A   Overcast
5:00 AM 66.2 °F 64.4 °F 94% 30.07 in 3.0 mi SE 9.2 mph - N/A   Overcast
5:18 AM 64.4 °F 64.4 °F 100% 30.07 in 2.5 mi SE 9.2 mph - N/A   Overcast
5:40 AM 66.2 °F 66.2 °F 100% 30.07 in 1.5 mi SE 9.2 mph - N/A   Overcast
5:53 AM 66.0 °F 66.0 °F 100% 30.07 in 0.8 mi SE 9.2 mph - N/A   Overcast
6:18 AM 66.2 °F 66.2 °F 100% 30.07 in 0.2 mi SE 8.1 mph - N/A Fog Fog
6:53 AM 64.9 °F 64.9 °F 100% 30.08 in 0.8 mi SSE 8.1 mph - N/A   Mist
7:53 AM 64.9 °F 64.9 °F 100% 30.08 in 0.5 mi SE 5.8 mph - N/A Fog Fog
8:27 AM 66.2 °F 66.2 °F 100% 30.07 in 2.0 mi SE 8.1 mph - N/A   Overcast
8:36 AM 66.2 °F 66.2 °F 100% 30.08 in 4.0 mi SSE 6.9 mph - N/A   Overcast
8:53 AM 66.0 °F 66.0 °F 100% 30.08 in 5.0 mi SSE 9.2 mph - N/A   Overcast
9:09 AM 66.2 °F 66.2 °F 100% 30.08 in 4.0 mi SE 8.1 mph - N/A   Overcast
9:16 AM 66.2 °F 66.2 °F 100% 30.08 in 5.0 mi SSE 8.1 mph - N/A   Overcast
9:27 AM 66.2 °F 64.4 °F 94% 30.08 in 0.2 mi SE 9.2 mph - N/A Fog Fog
9:53 AM 66.0 °F 66.0 °F 100% 30.08 in 0.2 mi SSE 9.2 mph - N/A Fog Fog
10:53 AM 66.9 °F 64.9 °F 93% 30.06 in 0.2 mi SE 9.2 mph - N/A Fog Fog
11:16 AM 66.2 °F 64.4 °F 94% 30.06 in 1.2 mi SE 9.2 mph - N/A   Overcast
11:53 AM 69.1 °F 66.9 °F 93% 30.03 in 4.0 mi SE 10.4 mph - N/A   Overcast
12:53 PM 69.1 °F 66.9 °F 93% 29.99 in 5.0 mi SE 13.8 mph - N/A   Overcast
1:53 PM 69.1 °F 66.9 °F 93% 29.97 in 2.0 mi SSE 8.1 mph - N/A   Overcast
2:53 PM 69.1 °F 66.9 °F 93% 29.96 in 2.0 mi SSE 10.4 mph - N/A   Overcast
3:02 PM 69.8 °F 66.2 °F 88% 29.95 in 1.0 mi SE 11.5 mph - N/A   Overcast
3:31 PM 68.0 °F 66.2 °F 94% 29.93 in 0.5 mi SE 11.5 mph - 0.00 in Fog , Rain Light Rain
3:53 PM 68.0 °F 66.9 °F 96% 29.93 in 0.5 mi SSE 12.7 mph - 0.00 in Fog Fog
4:53 PM 68.0 °F 66.9 °F 96% 29.92 in 1.5 mi SSE 13.8 mph - N/A   Overcast
5:53 PM 68.0 °F 66.9 °F 96% 29.91 in 1.5 mi SSE 11.5 mph - N/A   Overcast
6:28 PM 66.2 °F 66.2 °F 100% 29.91 in 0.5 mi South 12.7 mph - N/A Fog Fog
6:53 PM 68.0 °F 66.9 °F 96% 29.91 in 0.8 mi SSE 15.0 mph 20.7 mph N/A   Overcast
6:56 PM 68.0 °F 66.2 °F 94% 29.91 in 1.0 mi SSE 13.8 mph 20.7 mph N/A   Overcast
7:53 PM 68.0 °F 66.9 °F 96% 29.90 in 1.0 mi SSE 13.8 mph 23.0 mph N/A   Overcast
8:00 PM 68.0 °F 66.2 °F 94% 29.90 in 2.5 mi SSE 13.8 mph 23.0 mph N/A   Overcast
8:53 PM 68.0 °F 66.9 °F 96% 29.89 in 2.5 mi SSE 13.8 mph - N/A   Overcast
9:00 PM 66.2 °F 66.2 °F 100% 29.89 in 0.8 mi SSE 12.7 mph - N/A   Overcast
9:38 PM 66.2 °F 66.2 °F 100% 29.88 in 0.2 mi SSE 15.0 mph - N/A Fog Fog
9:53 PM 68.0 °F 68.0 °F 100% 29.88 in 0.5 mi South 11.5 mph 18.4 mph N/A Fog Fog
10:06 PM 68.0 °F 68.0 °F 100% 29.87 in 1.2 mi South 11.5 mph 19.6 mph N/A   Overcast
10:21 PM 68.0 °F 68.0 °F 100% 29.88 in 2.5 mi South 11.5 mph 19.6 mph N/A   Overcast
10:31 PM 68.0 °F 68.0 °F 100% 29.87 in 3.0 mi South 13.8 mph 20.7 mph N/A   Overcast
10:50 PM 68.0 °F 68.0 °F 100% 29.87 in 2.5 mi South 12.7 mph - N/A   Overcast
10:53 PM 68.0 °F 66.9 °F 96% 29.87 in 2.5 mi South 13.8 mph 20.7 mph N/A   Overcast
11:19 PM 68.0 °F 68.0 °F 100% 29.85 in 3.0 mi SSE 17.3 mph 23.0 mph N/A   Overcast
11:29 PM 68.0 °F 68.0 °F 100% 29.85 in 2.5 mi South 16.1 mph 24.2 mph N/A Rain Light Rain
11:53 PM 69.1 °F 68.0 °F 96% 29.85 in 2.5 mi South 12.7 mph 21.9 mph N/A   Overcast